This demonstration page uses our WeatherBlox Daily Observations layout. Learn more.

Left ArrowRight Arrow

39.51506, -84.39828

Hourly Observations for April 29, 2016

Temp ( °F °C ) Dew Point ( °F °C ) Humidity (%) Winds ( mph kmh ) Pressure ( in mb ) Visibility ( mi km ) Precip ( " mm )
12:15 am 00:15 Cloudy with Haze 57 13.8 51 10.5 81 81 N 5 7 29.97 1015 4 6 N/A
12:35 am 00:35 Cloudy with Haze 57 13.8 51 10.5 81 81 N 5 7 29.97 1015 4 6 N/A
12:55 am 00:55 Cloudy with Haze 57 13.8 51 10.5 81 81 NNE 6 9 29.97 1015 4 6 N/A
1:15 am 01:15 Cloudy with Haze 57 13.8 51 10.4 80 80 NE 5 7 29.97 1015 4 6 N/A
1:35 am 01:35 Cloudy with Haze 57 13.8 51 10.3 80 80 N N/A 30.00 1016 4 6 N/A
1:55 am 01:55 Cloudy with Haze 57 13.8 51 10.5 81 81 N 3 6 30.00 1016 4 6 N/A
2:15 am 02:15 Cloudy with Haze 57 13.8 51 10.3 80 80 N N/A 30.00 1016 4 6 N/A
2:35 am 02:35 Cloudy with Haze 57 13.8 51 10.5 81 81 N N/A 30.00 1016 4 6 N/A
2:55 am 02:55 Cloudy with Haze 57 13.8 51 10.5 81 81 N N/A 30.00 1016 4 6 N/A
3:15 am 03:15 Cloudy with Haze 57 13.8 51 10.5 81 81 WNW 5 7 30.00 1016 3 5 N/A
3:35 am 03:35 Cloudy with Haze 55 13 50 9.8 81 81 W 3 6 30.00 1016 3 5 N/A
3:55 am 03:55 Cloudy with Haze 55 12.5 49 9.3 81 81 WSW 3 6 30.00 1016 3 5 N/A
4:15 am 04:15 Cloudy with Haze 55 12.5 49 9.4 82 82 NNW 5 7 30.00 1016 3 5 N/A
4:35 am 04:35 Cloudy with Haze 55 12.5 49 9.5 82 82 N N/A 30.00 1016 2 3 N/A
4:55 am 04:55 Cloudy with Haze 55 12.5 49 9.5 82 82 W 3 6 30.00 1016 3 5 N/A
5:15 am 05:15 Cloudy with Haze 55 12.5 49 9.5 82 82 N N/A 30.00 1016 3 5 N/A
5:35 am 05:35 Cloudy with Haze 55 12.5 49 9.3 81 81 N N/A 30.00 1016 4 6 N/A
5:55 am 05:55 Cloudy with Haze 55 12.5 49 9.2 80 80 N N/A 30.00 1016 4 6 N/A
6:15 am 06:15 Cloudy with Haze 55 12.9 49 9.6 81 81 N N/A 30.00 1016 4 6 N/A
6:35 am 06:35 Cloudy with Haze 56 13.1 50 9.8 81 81 N N/A 30.00 1016 4 6 N/A
6:55 am 06:55 Cloudy with Haze 57 13.7 51 10.3 80 80 N N/A 30.00 1016 4 6 N/A
7:15 am 07:15 Cloudy with Haze 57 13.8 51 10.3 80 80 N N/A 30.03 1017 4 6 N/A
7:35 am 07:35 Cloudy with Haze 57 13.8 51 10.3 80 80 N N/A 30.03 1017 4 6 N/A
7:55 am 07:55 Cloudy with Haze 57 13.8 51 10.3 80 80 N N/A 30.03 1017 4 6 N/A
8:15 am 08:15 Cloudy with Haze 57 13.8 50 10.1 79 79 N N/A 30.03 1017 4 6 N/A
8:35 am 08:35 Cloudy with Haze 57 13.8 50 10.1 79 79 SW 3 6 30.03 1017 4 6 N/A
8:55 am 08:55 Cloudy with Haze 57 13.8 50 10 78 78 N N/A 30.03 1017 4 6 N/A
9:15 am 09:15 Cloudy with Haze 57 13.9 50 10 78 78 N N/A 30.03 1017 4 6 N/A
9:35 am 09:35 Cloudy with Haze 59 14.9 51 10.5 75 75 N N/A 30.03 1017 5 8 N/A
9:55 am 09:55 Cloudy with Haze 57 13.8 50 10.1 79 79 NE 8 13 30.03 1017 3 5 N/A
10:15 am 10:15 Cloudy with Haze 57 13.8 50 10.1 79 79 ENE 3 6 30.03 1017 3 5 N/A
10:35 am 10:35 Mostly Cloudy with Haze 58 14.5 51 10.5 77 77 NE 5 7 30.03 1017 3 5 N/A
10:55 am 10:55 Mostly Cloudy with Haze 60 15.6 51 10.4 71 71 NE 9 15 30.00 1016 4 6 N/A
11:15 am 11:15 Cloudy with Haze 59 15.1 51 10.4 74 74 N 9 15 30.06 1018 4 6 N/A
11:35 am 11:35 Partly Cloudy 61 16 50 9.9 67 67 N 6 9 30.03 1017 7 11 N/A
11:55 am 11:55 Mostly Cloudy 61 16.2 50 9.8 66 66 N 9 15 30.03 1017 7 11 N/A
12:15 pm 12:15 Mostly Cloudy 62 16.6 49 9.4 63 63 NNE 5 7 30.03 1017 10 16 N/A
12:35 pm 12:35 Cloudy 62 16.9 49 9.3 61 61 NNW 7 11 30.03 1017 10 16 N/A
12:55 pm 12:55 Cloudy 62 16.9 48 8.8 59 59 N 7 11 30.03 1017 10 16 N/A
1:15 pm 13:15 Mostly Cloudy 64 17.7 47 8.4 55 55 NW 5 7 30.03 1017 10 16 N/A
1:35 pm 13:35 Mostly Cloudy 65 18.4 46 7.8 50 50 N 8 13 30.00 1016 10 16 N/A
1:55 pm 13:55 Mostly Cloudy 64 18 44 6.9 48 48 NNW 9 15 30.00 1016 10 16 N/A
2:15 pm 14:15 Mostly Cloudy 65 18.6 46 7.9 50 50 NNW 6 9 30.00 1016 10 16 N/A
2:35 pm 14:35 Mostly Cloudy 67 19.5 46 8 48 48 WNW 8 13 30.00 1016 10 16 N/A
2:55 pm 14:55 Mostly Cloudy 64 18 45 7.2 49 49 NNE 12 19 30.00 1016 10 16 N/A
3:15 pm 15:15 Mostly Cloudy 65 18.3 46 7.8 51 51 NNW 7 11 30.03 1017 10 16 N/A
3:35 pm 15:35 Mostly Cloudy 64 18 44 6.6 47 47 NNW 7 11 30.03 1017 10 16 N/A
3:55 pm 15:55 Mostly Cloudy 67 19.5 45 7 44 44 N 6 9 30.03 1017 10 16 N/A
4:15 pm 16:15 Partly Cloudy 67 19.5 44 6.4 43 43 NNW 5 7 30.03 1017 10 16 N/A
4:35 pm 16:35 Partly Cloudy 69 20.7 45 7.1 41 41 NNW 7 11 30.00 1016 10 16 N/A
4:55 pm 16:55 Partly Cloudy 67 19.5 43 6.3 42 42 N 8 13 30.00 1016 10 16 N/A
5:15 pm 17:15 Sunny 65 18.3 43 6.3 46 46 N 6 9 30.00 1016 10 16 N/A
5:35 pm 17:35 Sunny 64 18 42 5.4 44 44 NNW 9 15 30.00 1016 10 16 N/A
5:55 pm 17:55 Sunny 65 18.5 43 6 44 44 NNW 6 9 30.00 1016 10 16 N/A
6:15 pm 18:15 Partly Cloudy 64 18 44 6.6 47 47 NNE 8 13 30.03 1017 10 16 N/A
6:35 pm 18:35 Partly Cloudy 63 17.3 44 6.4 49 49 NNW 7 11 30.03 1017 10 16 N/A
6:55 pm 18:55 Sunny 63 17 45 7.1 52 52 N 7 11 30.03 1017 10 16 N/A
7:15 pm 19:15 Sunny 62 16.6 45 7.3 54 54 NNE 9 15 30.03 1017 10 16 N/A
7:35 pm 19:35 Sunny 61 16 45 7.2 56 56 NNE 9 15 30.03 1017 10 16 N/A
7:55 pm 19:55 Sunny 60 15.5 45 7.4 59 59 NE 6 9 30.06 1018 10 16 N/A
8:15 pm 20:15 Sunny 60 15.3 46 7.9 62 62 NE 6 9 30.06 1018 10 16 N/A
8:35 pm 20:35 Clear 60 15.3 47 8.5 64 64 NNE 6 9 30.09 1019 10 16 N/A
8:55 pm 20:55 Clear 60 15.3 47 8.4 64 64 undefined N/A 30.09 1019 10 16 N/A
9:15 pm 21:15 Clear 57 14.1 46 7.5 65 65 NNE 7 11 30.09 1019 10 16 N/A
9:35 pm 21:35 Clear 57 13.8 45 7.4 66 66 NNE 8 13 30.12 1020 10 16 N/A
9:55 pm 21:55 Clear 57 13.8 45 7.4 66 66 NNE 10 17 30.12 1020 10 16 N/A
10:15 pm 22:15 Clear 57 13.8 45 7.4 66 66 NNE 9 15 30.12 1020 10 16 N/A
10:35 pm 22:35 Clear 57 13.8 46 7.6 66 66 NNE 8 13 30.12 1020 10 16 N/A
10:55 pm 22:55 Clear 57 13.8 46 7.6 66 66 NNE 7 11 30.12 1020 10 16 N/A
11:15 pm 23:15 Clear 57 13.8 46 8 68 68 NE 7 11 30.12 1020 10 16 N/A
11:35 pm 23:35 Clear 57 13.8 46 7.8 67 67 NE 7 11 30.12 1020 10 16 N/A
11:55 pm 23:55 Clear 57 13.8 46 8 68 68 NE 5 7 30.12 1020 10 16 N/A

Powered by AerisWeather